Simultaneous Nadir Overpasses (SNOs) Predictions

Prediction of SNOs between METOP-A and TERRA Satellite Orbit:

Table of predicted SNOs for the next 14.0 days since TLE Epoch: 5/16/2015
Index Date (METOP-A) Time (METOP-A) Lat,Lon (METOP-A) SZA (METOP-A ) Date (TERRA) Time (TERRA) Lat,Lon (TERRA) SZA (TERRA ) Distance(km) Time Diff (sec)
1 05/16/2015 20:28:40 81.34, -79.19 65.25 05/16/2015 20:29:35 81.34, -79.35 65.26 2.57 55
2 05/16/2015 21:19:20 -81.34, 88.40 114.73 05/16/2015 21:19:01 -81.35, 88.53 114.72 2.25 19
3 05/19/2015 16:03:01 81.34, -12.81 64.63 05/19/2015 16:03:51 81.35, -12.76 64.66 0.99 50
4 05/19/2015 16:53:41 -81.34, 154.80 115.35 05/19/2015 16:53:18 -81.34, 154.76 115.37 0.76 23
5 05/22/2015 11:37:21 81.34, 53.47 64.03 05/22/2015 11:38:06 81.34, 53.55 64.06 1.32 45
6 05/
